[[{"header":{"parameterUnit":"m.s-1","parameterCategory":1,"la1":30.2991,"la2":30.254,"lo1":-89.0895,"lo2":-89.0444,"dy":0.0017,"dx":0.0017,"nx":28,"ny":28,"refTime":"2024-04-09T03:00:00:Z","depth":0,"parameterNumber":2,"parameterNumberName":"U-component_of_WINDS"},"data":[0,0,0,0,0,0,0,0,0,0,0,0,0,0,0,0,0,0,0,0,0,0,0,0,0,0,0,0,0,0,0,0,0,0,0,0,0,0,0,0,0,0,0,0,0,0,0,0,0,0,0,0,0,0,0,0,0,0,-5.4666,-5.4666,0,-5.473,-5.473,-5.4731,-5.4723,-5.4722,-5.4721,-5.472,-5.4784,-5.4787,-5.479,0,0,0,0,0,0,0,0,0,0,0,0,0,-5.4536,-5.4539,-5.4666,-5.4667,-5.4667,-5.473,-5.473,-5.4731,-5.4723,-5.4722,-5.4721,-5.472,-5.4783,-5.4787,-5.479,0,0,0,0,0,0,0,0,0,0,0,0,0,-5.4596,-5.454,-5.4666,-5.4671,-5.4672,-5.4729,-5.473,-5.4732,-5.4724,-5.4722,-5.4721,-5.4719,-5.4782,-5.4786,-5.479,-5.4846,0,0,-5.4802,-5.4804,0,0,0,0,0,0,0,0,-5.4592,-5.46,-5.4669,-5.4671,-5.4672,-5.4717,-5.4708,-5.477,-5.4724,-5.4704,-5.472,-5.4718,-5.4763,-5.4769,-5.4784,-5.4849,-5.4852,-5.4803,-5.4805,-5.4807,-5.4808,0,0,0,0,0,0,0,-5.4588,-5.4598,-5.4691,-5.467,-5.4672,-5.467,-5.4677,-5.472,-5.4741,-5.4706,-5.4705,-5.4713,-5.4763,-5.478,-5.4785,-5.4853,-5.4803,-5.4806,-5.4809,-5.481,-5.4967,-5.4968,0,0,0,0,0,0,-5.4583,-5.4594,-5.4689,-5.4693,-5.4628,-5.4674,-5.4681,-5.4704,-5.4741,-5.4745,-5.4714,-5.4712,-5.4774,-5.4781,-5.4788,-5.4854,-5.4807,-5.4811,-5.4813,-5.4965,-5.4967,-5.4969,0,0,0,0,0,0,-5.458,-5.4591,-5.4686,-5.4644,-5.4655,-5.4678,-5.4703,-5.4706,-5.4723,-5.4747,-5.4751,-5.4727,-5.4773,-5.4782,-5.4832,-5.4856,-5.4812,-5.4816,-5.4963,-5.4965,-5.4968,-5.4989,0,0,0,0,0,0,-5.4576,-5.459,-5.4612,-5.4644,-5.4658,-5.4729,-5.4705,-5.4709,-5.473,-5.4728,-5.4761,-5.4764,-5.4773,-5.4826,-5.4836,-5.4861,-5.4819,-5.4961,-5.4964,-5.4967,-5.4986,-5.4992,-5.4997,0,0,0,0,0,-5.4572,-5.4615,-5.4613,-5.4624,-5.4685,-5.4731,-5.4738,-5.4747,-5.4732,-5.4753,-5.4769,-5.4763,-5.4853,-5.4831,-5.4842,-5.4869,-5.4959,-5.4963,-5.4967,-5.4983,-5.499,-5.4997,0,0,0,0,0,0,-5.4584,-5.4619,-5.4617,-5.4672,-5.4699,-5.4729,-5.4756,-5.4755,-5.4786,-5.4782,-5.4792,-5.4799,-5.4849,-5.4865,-5.4839,-5.4925,-5.4904,-5.491,-5.4912,-5.492,-5.4925,-5.4919,-5.4823,0,0,0,0,0,-5.4593,-5.4628,-5.4657,-5.4702,-5.4716,-5.4734,-5.4754,-5.4759,-5.4787,-5.4797,-5.4817,-5.4844,-5.4878,-5.49,-5.4933,-5.4989,-5.4996,-5.5014,-5.5019,-5.5023,-5.5028,-5.5058,-5.5066,-5.4982,-5.4982,-5.4982,0,0,-5.4612,-5.4636,-5.4656,-5.4705,-5.4726,-5.4761,-5.4743,-5.4781,-5.4807,-5.4803,-5.485,-5.4867,-5.4897,-5.495,-5.4974,-5.4964,-5.5053,-5.5028,-5.5032,-5.5034,-5.5063,-5.5071,-5.5078,-5.4984,-5.4984,-5.4984,0,0,-5.4664,-5.4686,-5.4725,-5.4748,-5.478,-5.4792,-5.4802,-5.4834,-5.4844,-5.4893,-5.489,-5.4922,-5.498,-5.5002,-5.5021,-5.5083,-5.5079,-5.5094,-5.5121,-5.5151,-5.5157,-5.5163,-5.5184,-5.5191,-5.5099,-5.5099,-5.5099,0,-5.4682,-5.4735,-5.4746,-5.4785,-5.4806,-5.4805,-5.4845,-5.4866,-5.4908,-5.4922,-5.4911,-5.4985,-5.5006,-5.5063,-5.5079,-5.5095,-5.5105,-5.5089,-5.5156,-5.5162,-5.5167,-5.5187,-5.5195,-5.5101,-5.51,-5.51,-5.51,0,-5.4757,-5.4794,-5.4822,-5.4862,-5.4887,-5.4927,-5.4943,-5.4967,-5.497,-5.4984,-5.5033,-5.5059,-5.5096,-5.5111,-5.5115,-5.517,-5.5162,-5.5154,-5.5132,-5.5177,-5.5195,-5.5203,-5.5103,-5.5102,-5.5102,-5.5101,0,0,-5.4815,-5.4862,-5.4872,-5.489,-5.4927,-5.4956,-5.4996,-5.5033,-5.5053,-5.5083,-5.5115,-5.5166,-5.5158,-5.518,-5.5186,-5.5212,-5.5259,-5.52,-5.5201,-5.5209,-5.532,-5.5324,-5.5333,-5.5257,-5.5259,-5.526,-5.5316,0,-5.4868,-5.4938,-5.495,-5.5011,-5.5045,-5.5046,-5.508,-5.5107,-5.5121,-5.5152,-5.5168,-5.5203,-5.5191,-5.5204,-5.523,-5.5247,-5.5281,-5.5244,-5.5286,-5.5288,-5.5276,-5.5343,-5.5348,-5.5399,-5.5324,-5.5325,-5.5326,0,-5.494,-5.4971,-5.5036,-5.5068,-5.5083,-5.5114,-5.5149,-5.5179,-5.521,-5.5218,-5.5243,-5.5247,-5.5288,-5.5267,-5.5323,-5.5298,-5.5317,-5.5328,-5.533,-5.5332,-5.5308,-5.5344,-5.5416,-5.5423,-5.5338,-5.5337,-5.5336,0,-5.4973,-5.5032,-5.5078,-5.5094,-5.5134,-5.5156,-5.5173,-5.5202,-5.5224,-5.5256,-5.527,-5.5306,-5.5325,-5.5353,-5.5366,-5.535,-5.5421,-5.5402,-5.5429,-5.5428,-5.5441,-5.5439,-5.5514,-5.5457,-5.5457,-5.5457,-5.5457,0,-5.503,-5.5069,-5.5094,-5.5122,-5.5166,-5.5179,-5.5222,-5.524,-5.5266,-5.5297,-5.5301,-5.533,-5.5347,-5.5379,-5.539,-5.5435,-5.5444,-5.5451,-5.5453,-5.5449,-5.5448,-5.546,-5.5455,-5.5459,-5.5459,-5.5458,-5.5458,0,-5.5074,-5.5092,-5.5142,-5.5176,-5.5186,-5.5217,-5.5246,-5.5273,-5.5288,-5.5328,-5.5338,-5.5362,-5.54,-5.5417,-5.5463,-5.5471,-5.5521,-5.5521,-5.551,-5.551,-5.5536,-5.5532,-5.5618,-5.563,-5.5567,-5.5568,-5.5568,0,-5.5108,-5.5138,-5.5176,-5.5197,-5.5215,-5.525,-5.5273,-5.5288,-5.5312,-5.5349,-5.5372,-5.541,-5.5441,-5.5502,-5.5523,-5.5559,-5.5559,-5.5587,-5.5564,-5.5559,-5.5557,-5.5554,-5.5556,-5.559,-5.559,-5.5591,-5.5591,0,-5.5166,-5.5174,-5.5206,-5.5243,-5.527,-5.5299,-5.5328,-5.5345,-5.5365,-5.5391,-5.543,-5.5455,-5.5503,-5.554,-5.5578,-5.5596,-5.5597,-5.5599,-5.5606,-5.5601,-5.5593,-5.5596,-5.5519,-5.5596,-5.5595,-5.5595,-5.5595,-5.5595,-5.5204,-5.5231,-5.5261,-5.5298,-5.5321,-5.5348,-5.5376,-5.5395,-5.5428,-5.5468,-5.5476,-5.5517,-5.5547,-5.5598,-5.5618,-5.565,-5.5643,-5.5655,-5.5657,-5.5659,-5.566,-5.559,-5.5657,-5.5657,-5.5657,-5.5657,-5.5657,0,-5.5261,-5.5281,-5.5314,-5.5355,-5.5383,-5.5383,-5.5415,-5.5439,-5.5475,-5.5504,-5.5535,-5.558,-5.5617,-5.5642,-5.5679,-5.57,-5.5701,-5.5709,-5.5706,-5.571,-5.5665,-5.5653,-5.5707,-5.5707,-5.5707,-5.5707,-5.5707,-5.5707,-5.5293,-5.5338,-5.5349,-5.5406,-5.5426,-5.5467,-5.5485,-5.551,-5.5532,-5.5582,-5.5613,-5.563,-5.5657,-5.5697,-5.573,-5.5737,-5.5749,-5.5757,-5.5763,-5.5719,-5.5714,-5.5709,-5.5698,-5.576,-5.576,-5.5806,-5.5806,-5.5807]},{"header":{"parameterUnit":"m.s-1","parameterCategory":1,"la1":30.2991,"la2":30.254,"lo1":-89.0895,"lo2":-89.0444,"dy":0.0017,"dx":0.0017,"nx":28,"ny":28,"refTime":"2024-04-09T03:00:00:Z","depth":0,"parameterNumber":3,"parameterNumberName":"V-component_of_WINDS"},"data":[0,0,0,0,0,0,0,0,0,0,0,0,0,0,0,0,0,0,0,0,0,0,0,0,0,0,0,0,0,0,0,0,0,0,0,0,0,0,0,0,0,0,0,0,0,0,0,0,0,0,0,0,0,0,0,0,0,0,4.9191,4.9191,0,4.9197,4.9197,4.9197,4.9174,4.9174,4.9173,4.9172,4.9176,4.9177,4.9178,0,0,0,0,0,0,0,0,0,0,0,0,0,4.9159,4.916,4.9191,4.9191,4.9191,4.9197,4.9197,4.9197,4.9175,4.9174,4.9173,4.9172,4.9176,4.9177,4.9178,0,0,0,0,0,0,0,0,0,0,0,0,0,4.917,4.916,4.9191,4.918,4.918,4.9197,4.9197,4.9197,4.9175,4.9174,4.9173,4.9172,4.9176,4.9177,4.9178,4.9205,0,0,4.9181,4.9182,0,0,0,0,0,0,0,0,4.9169,4.9171,4.9182,4.9181,4.918,4.9184,4.9187,4.9199,4.9175,4.9176,4.9172,4.9171,4.918,4.918,4.9184,4.9205,4.9205,4.9181,4.9182,4.9183,4.9183,0,0,0,0,0,0,0,4.9168,4.917,4.9193,4.9182,4.9181,4.9175,4.9176,4.9189,4.9183,4.9176,4.9175,4.9176,4.9179,4.9183,4.9183,4.9205,4.9181,4.9182,4.9183,4.9183,4.9251,4.9252,0,0,0,0,0,0,4.9169,4.917,4.9193,4.9193,4.9172,4.9177,4.9177,4.9184,4.9183,4.9182,4.9177,4.9175,4.9181,4.9182,4.9184,4.9217,4.9183,4.9184,4.9184,4.925,4.9251,4.9253,0,0,0,0,0,0,4.9168,4.9171,4.9193,4.9181,4.9183,4.9178,4.9186,4.9184,4.9188,4.9184,4.9182,4.9182,4.918,4.9182,4.92,4.9216,4.9184,4.9185,4.9249,4.925,4.9252,4.9282,0,0,0,0,0,0,4.9168,4.9171,4.9181,4.9182,4.9184,4.921,4.9187,4.9185,4.919,4.9188,4.9188,4.9187,4.918,4.9199,4.9201,4.9217,4.9186,4.9247,4.9249,4.9251,4.928,4.9285,4.9289,0,0,0,0,0,4.9167,4.9188,4.9182,4.9185,4.9197,4.9211,4.9212,4.9204,4.9192,4.9202,4.9199,4.9187,4.9214,4.9201,4.9204,4.922,4.9246,4.9249,4.9251,4.9278,4.9284,4.9289,0,0,0,0,0,0,4.9189,4.9188,4.9181,4.9204,4.9208,4.9207,4.9219,4.921,4.9217,4.9214,4.9203,4.9204,4.9225,4.9224,4.9209,4.9247,4.9228,4.9231,4.9247,4.9253,4.9257,4.9258,4.9187,0,0,0,0,0,4.9197,4.9208,4.9207,4.9227,4.923,4.9224,4.923,4.9224,4.9227,4.9228,4.9227,4.923,4.9239,4.9246,4.9254,4.9279,4.928,4.9292,4.9297,4.93,4.9304,4.9319,4.9325,4.9261,4.9261,4.9261,0,0,4.9212,4.9214,4.9221,4.9232,4.9234,4.9247,4.9226,4.9239,4.9249,4.923,4.9248,4.9247,4.925,4.9273,4.9282,4.9273,4.9322,4.9304,4.9307,4.9308,4.9323,4.9329,4.9334,4.9263,4.9262,4.9262,0,0,4.9248,4.925,4.9268,4.9271,4.9275,4.9272,4.9277,4.9278,4.9277,4.9295,4.9282,4.9293,4.9308,4.9312,4.9316,4.9355,4.9345,4.9358,4.9382,4.9398,4.9403,4.9407,4.9423,4.9429,4.9361,4.9361,4.9361,0,4.9267,4.9286,4.9278,4.9294,4.9299,4.9284,4.9303,4.9306,4.9313,4.9317,4.9306,4.9327,4.9328,4.9352,4.9362,4.9365,4.9371,4.9358,4.9403,4.9407,4.9411,4.9427,4.9432,4.9363,4.9362,4.9362,4.9362,0,4.9311,4.9324,4.9338,4.9347,4.9354,4.9371,4.9365,4.9373,4.9367,4.9365,4.9385,4.9385,4.9394,4.9399,4.9392,4.9423,4.9417,4.9405,4.9386,4.9419,4.9434,4.9439,4.9365,4.9365,4.9364,4.9364,0,0,4.936,4.9366,4.9371,4.9376,4.938,4.9391,4.9407,4.9418,4.9426,4.9431,4.9445,4.946,4.9449,4.9454,4.9447,4.946,4.9494,4.9446,4.9446,4.9457,4.9531,4.9542,4.9549,4.9487,4.9488,4.9488,4.9531,0,4.9397,4.9428,4.9422,4.9451,4.9464,4.9451,4.9466,4.947,4.9469,4.948,4.9478,4.949,4.9473,4.9476,4.9489,4.9487,4.9509,4.9484,4.9501,4.9502,4.9503,4.9556,4.9567,4.9607,4.9537,4.9538,4.9538,0,4.9445,4.9454,4.9485,4.949,4.9495,4.9509,4.9519,4.9529,4.9534,4.9533,4.9539,4.953,4.9547,4.9527,4.9551,4.9534,4.9541,4.9541,4.9543,4.9545,4.9523,4.9562,4.962,4.9627,4.9546,4.9546,4.9545,0,4.9481,4.95,4.9523,4.9527,4.9532,4.9542,4.9545,4.9549,4.9556,4.9565,4.957,4.9579,4.9585,4.9593,4.9587,4.9573,4.9613,4.9592,4.9613,4.9614,4.9623,4.9623,4.9685,4.9624,4.9624,4.9624,4.9624,0,4.9524,4.9544,4.9539,4.9553,4.9576,4.9568,4.9591,4.9592,4.9596,4.961,4.9597,4.9611,4.9602,4.9614,4.9609,4.9632,4.9633,4.9633,4.9632,4.9636,4.9636,4.9641,4.9639,4.9626,4.9626,4.9625,4.9625,0,4.9569,4.9566,4.959,4.9593,4.9595,4.9612,4.9615,4.9628,4.9626,4.9644,4.9647,4.9645,4.9659,4.9654,4.9668,4.9665,4.9694,4.9688,4.9693,4.9693,4.9715,4.9714,4.9784,4.9794,4.9725,4.9725,4.9726,0,4.9597,4.9613,4.9619,4.9628,4.9632,4.9646,4.9655,4.9648,4.9657,4.9665,4.9678,4.9691,4.9702,4.9725,4.9724,4.9736,4.9732,4.9755,4.9733,4.9737,4.9735,4.9735,4.9737,4.976,4.9761,4.9762,4.9762,0,4.9649,4.9648,4.966,4.9673,4.9684,4.9693,4.9701,4.9709,4.9703,4.9714,4.9729,4.9738,4.9754,4.9768,4.9779,4.9781,4.9772,4.9769,4.9775,4.978,4.9783,4.9784,4.9708,4.9768,4.9767,4.9767,4.9767,4.9766,4.9688,4.9703,4.971,4.9725,4.9731,4.974,4.9753,4.9754,4.9767,4.9781,4.9775,4.9794,4.98,4.9813,4.9817,4.9831,4.9822,4.983,4.9833,4.9835,4.9839,4.9779,4.9833,4.9833,4.9833,4.9832,4.9832,0,4.9742,4.9747,4.976,4.9774,4.9786,4.9776,4.9785,4.9796,4.9812,4.9819,4.9831,4.9849,4.9863,4.9864,4.9877,4.9889,4.9885,4.9892,4.9893,4.9894,4.9846,4.984,4.9896,4.9896,4.9896,4.9896,4.9896,4.9896,4.9772,4.9796,4.9796,4.9824,4.9827,4.9846,4.9853,4.9861,4.9867,4.9889,4.9901,4.9901,4.9906,4.992,4.9933,4.9933,4.9939,4.9949,4.9948,4.9903,4.9897,4.9891,4.9886,4.995,4.995,4.9995,4.9995,4.9996]}]]